STARLINK-2623, 48368

Orbit data source: Space-Track

STARLINK-2623, 48368 is a payload satellite owned by SpaceX/Seattle (US) in LEO that was launched on Tue, 04 May 2021 UTC via an FALCON 9 launch vehicle from the Air Force Eastern Test Range (AFETR). Payload-class satellites include a variety of spacecraft equipped with specific instruments for various scientific and technological missions. These include communications satellites like Starlink; space stations such as the ISS; scientific satellites like the Hubble; Earth observation satellites from companies like Planet Labs, Umbra, and HawkEye 360; GPS; miniature CubeSats for education and research; and military/defense satellites.

Loading next visibility...
Identifier
48368, 2021-038R
Orbit
LEO
Country
Flag of USUS
Related business
Manufacturer
SpaceX/Seattle
Mission
Operational Commercial Communications
Bus & Motor
STARLINK, Unknown motor
Mass
260 kg wet, ~248 kg dry
Launch date (UTC)
2021-05-04 (5 years ago)
Launch vehicle
FALCON 9
Launch site
Air Force Eastern Test Range (AFETR)
Object type
Payload
Rocket body
Debris
Shape & HBR
Box + 1 Pan, 10.1 m
Radar Cross Section
13.562 m², Large (>1 m²)

Expand to show TLE details & history
Last TLE update: 2 days ago

TLE from 2 days ago
0 STARLINK-2623
1 48368U 21038R   26171.45516286  .00000316  00000-0  21926-4 0  9991
2 48368  53.1588 230.2842 0001026  77.5240 282.5877 15.31704086282967
Epoch: 2026-06-20T10:55Z
TLE epoch observation values (Epoch: 2026-06-20T10:55:26.071Z)
Latitude
0.00007°
Longitude
157.75608°
Altitude
471.475 km
Speed
7.632 km/s
True Right ascension
15h 21m 08s
True Declination
0° 00' 00"
Sunlit
Object was in full shadow at epoch
Visualization orbit readout
Latitude
Unknown
Longitude
Unknown
Altitude
Unknown
Speed
Unknown
Apparent Right ascension
Unknown
Apparent Declination
Unknown
Sunlit
N/A
Visualization observer readout
Local Sidereal Time
21:26:02
Azimuth
Unknown
Elevation
Unknown
Doppler factor
Unknown
Orbital elements
Apogee altitude
471.687 km
Perigee altitude
470.282 km
Semi-major axis
6,849.122 km
Eccentricity
0.0001
Inclination
53.1588°
RAAN
230.2842°
Arg. of periapsis
77.524°
True anomaly
282.57623°
Mean anomaly
282.5877°
Eccentric anomaly
282.58196°
Mean motion
3.82905 °/min
Orbital period
94.02 mins
BSTAR
0.000021926
Loading maneuver chart data...
Computing Atmospheric mass density...

Documentation

Showing up to 5 results
|